Sexton Summit, OR

11:49 PM PDT on April 24, 2017 (GMT -0700)
Sexton Summit

Weather History for KSXT - July, 2013

Change the Weather History Date:

Friday, July 26, 2013

  Actual Average Record
Temperature  
Mean Temperature 73 °F -  
Max Temperature 86 °F 76 °F 91 °F (1996)
Min Temperature 62 °F 54 °F 46 °F (2015)
Cooling Degree Days 8    
Growing Degree Days 23 (Base 50)    
Moisture  
Dew Point 41 °F    
Average Humidity 31    
Maximum Humidity 46    
Minimum Humidity 22    
Precipitation  
Precipitation 0.00 in - - ()
Sea Level Pressure  
Sea Level Pressure 30.02 in    
Wind  
Wind Speed 7 mph (North)    
Max Wind Speed 13 mph    
Max Gust Speed 25 mph    
Visibility 10 miles    
Events      
Averages and records for this station are not official NWS values.
T = Trace of Precipitation, MM = Missing Value Source: NWS Daily Summary

Daily Weather History Graph

Daily Weather History Graph

Search for Another Location

Airport or City:

Trip Planner

Search our weather history database for the weather conditions in past years. The results will help you decide how hot, cold, wet, or windy it might be!

Date:

Astronomy

Jul. 26, 2013 Rise Set
Actual Time 5:59 AM PDT 8:39 PM PDT
Civil Twilight 5:27 AM PDT 9:12 PM PDT
Nautical Twilight 4:46 AM PDT 9:52 PM PDT
Astronomical Twilight 3:59 AM PDT 10:39 PM PDT
Moon 10:48 PM PDT (7/26) 10:49 AM PDT (7/26)
Length of Visible Light 15h 45m
Length of Day
14h 40m
Waning Gibbous, 79% of the Moon is Illuminated
Jul 26
Waning Gibbous
Jul 29
Last Quarter
Aug 6
New
Aug 14
First Quarter
Aug 20
Full

Hourly Weather History & Observations

Time (PDT) Temp. Dew Point Humidity Pressure Visibility Wind Dir Wind Speed Gust Speed Precip Events Conditions
12:56 AM 69.1 °F 35.1 °F 29% 29.97 in 10.0 mi North 9.2 mph - N/A   Clear
1:56 AM 68.0 °F 35.1 °F 30% 29.97 in 10.0 mi North 6.9 mph - N/A   Mostly Cloudy
2:56 AM 68.0 °F 35.1 °F 30% 29.96 in 10.0 mi North 8.1 mph - N/A   Mostly Cloudy
3:56 AM 69.1 °F 37.0 °F 31% 29.95 in 10.0 mi North 10.4 mph - N/A   Partly Cloudy
4:56 AM 70.0 °F 37.9 °F 31% 29.95 in 10.0 mi NNE 9.2 mph - N/A   Clear
5:56 AM 72.0 °F 41.0 °F 33% 29.96 in 10.0 mi ENE 5.8 mph - N/A   Clear
6:56 AM 62.1 °F 41.0 °F 46% 30.01 in 10.0 mi North 10.4 mph - N/A   Clear
7:56 AM 72.0 °F 45.0 °F 38% 30.00 in 10.0 mi Calm Calm - N/A   Clear
8:56 AM 71.1 °F 41.0 °F 34% 30.03 in 10.0 mi Calm Calm - N/A   Clear
9:56 AM 75.0 °F 45.0 °F 34% 30.03 in 10.0 mi Calm Calm - N/A   Clear
10:56 AM 78.1 °F 48.0 °F 35% 30.03 in 10.0 mi Calm Calm - N/A   Clear
11:56 AM 77.0 °F 48.0 °F 36% 30.03 in 10.0 mi Variable 4.6 mph - N/A   Clear
12:56 PM 81.0 °F 52.0 °F 36% 30.02 in 10.0 mi Variable 3.5 mph - N/A   Clear
1:56 PM 84.9 °F 51.1 °F 31% 30.01 in 10.0 mi Variable 3.5 mph - N/A   Clear
2:56 PM 84.0 °F 46.9 °F 27% 30.01 in 10.0 mi Variable 5.8 mph - N/A   Clear
3:56 PM 82.0 °F 39.9 °F 22% 30.00 in 10.0 mi Variable 6.9 mph - N/A   Mostly Cloudy
4:56 PM 81.0 °F 39.9 °F 23% 29.98 in 10.0 mi Variable 5.8 mph - N/A   Mostly Cloudy
5:17 PM 78.8 °F 39.2 °F 24% 30.17 in 10.0 mi NNW 8.1 mph - N/A   Overcast
5:56 PM 78.1 °F 39.0 °F 25% 29.97 in 10.0 mi Variable 6.9 mph - N/A   Overcast
6:54 PM 75.2 °F 33.8 °F 22% 30.16 in 10.0 mi North 8.1 mph 24.2 mph N/A   Overcast
6:56 PM 73.9 °F 34.0 °F 23% 30.02 in 10.0 mi North 9.2 mph 24.2 mph N/A   Overcast
7:56 PM 73.0 °F 34.0 °F 24% 30.01 in 10.0 mi NNW 11.5 mph 25.3 mph N/A   Mostly Cloudy
8:56 PM 70.0 °F 36.0 °F 29% 30.04 in 10.0 mi Variable 6.9 mph - N/A   Clear
9:56 PM 70.0 °F 33.1 °F 26% 30.04 in 10.0 mi North 12.7 mph 20.7 mph N/A   Partly Cloudy
10:56 PM 66.9 °F 45.0 °F 45% 30.04 in 10.0 mi North 10.4 mph 19.6 mph N/A   Partly Cloudy
11:56 PM 66.0 °F 43.0 °F 43% 30.04 in 10.0 mi North 12.7 mph 20.7 mph N/A   Mostly Cloudy